www.pogodaiklimat.ru
ПОГОДА в Научном саду

Архив погоды в Научном саду (Филиппины)

Время
(UTC), дата
18 18.09
00 19.09
03 19.09
06 19.09
12 19.09
15 19.09
18 19.09
00 20.09
03 20.09
06 20.09
09 20.09
12 20.09
15 20.09
18 20.09
21 20.09
00 21.09
06 21.09
12 21.09
15 21.09
18 21.09
00 22.09
06 22.09
12 22.09
15 22.09
18 22.09
21 22.09
00 23.09
03 23.09
06 23.09
09 23.09
12 23.09
15 23.09
18 23.09
00 24.09
03 24.09
06 24.09
09 24.09
12 24.09
15 24.09
18 24.09
21 24.09
00 25.09
03 25.09
06 25.09
09 25.09
Ветер
(напр.,м/с)
Видим. Явления Облачность Т
(С)
Тd
(С)
f
(%)
Тe
(С)
Тes
(С)
Комфортность P
(гПа)
Po
(гПа)
Тmin
(С)
Tmax
(С)
R
(мм)
R24
(мм)
S
(см)
В 1 8000 м мгла {ливн. дождь} 8/3 600 м
[Cu med, cong Ac As]
+25.8 +25.0 95 +37 +37 очень
душно
1008.2 1003.3 5
штиль 0 8000 м слаб. ливневой дождь 9/4 600 м
[Cu Sc Ac As]
+26.5 +25.0 91 +38 +40 очень
душно
1009.2 1004.3 +25.5 7 6.6
ЮЗ 1 7000 м гроза, ливневой дождь 10/8 480 м
[Cb cap As op]
+26.0 +24.7 93 +37 +38 очень
душно
1009.4 1004.5 5
В 1
{8}
7000 м сильн. гроза, ливневой дождь 10/5 480 м
[Cb cap As op]
+25.7 +25.0 96 +37 +39 очень
душно
1007.1 1002.2 24
В 1 7000 м слаб. дождь 10/4 600 м
[Sc As op]
+26.0 +25.2 95 +37 +37 очень
душно
1007.4 1002.4 +27.4 4
Ю 1 7000 м слаб. дождь 10/8 540 м
[Cu med, cong As op]
+25.2 +24.4 95 +35 +35 очень
душно
1009.4 1004.5 2
штиль 0 7000 м в посл. час ливневой дождь 9/4 540 м
[Cu med, cong As trans]
+25.2 +24.4 95 +35 +35 очень
душно
1007.8 1002.9 2
З 1 6000 м гроза, ливневой дождь 10/4 500 м
[Cb cap As op]
+25.4 +24.2 93 +35 +36 очень
душно
1009.4 1004.5 +25.0 31 30.5
ЮЗ 1 7000 м в посл. час гроза {ливн. дождь} 10/5 540 м
[Cb cap As op]
+27.9 +24.6 82 +39 +42 очень
душно
1008.8 1003.9 5
ЮВ 1 8000 м мгла 9/3 540 м
[Cu med, cong As trans]
+27.8 +24.6 83 +39 +45 очень
душно
1007.5 1002.6 5
Ю 1 7000 м слаб. ливневой дождь 10/10 540 м +26.0 +24.7 93 +37 +37 очень
душно
1007.9 1003.0 1
ЮВ 1 18 км мгла {ливн. дождь} 10/5 600 м
[Cu Sc As trans Ci fib]
+25.4 +23.9 91 +35 +35 очень
душно
1009.8 1004.9 +28.5 2
ЮВ 1 7000 м мгла 8/3 600 м
[Sc Ac trans Ci fib]
+25.2 +24.1 94 +35 +35 очень
душно
1010.4 1005.5
Ю 1 7000 м 6/1 600 м
[Cu med, cong Ac trans Ci fib]
+25.2 +24.0 93 +35 +35 очень
душно
1008.9 1004.0
ЮВ 1 8000 м 3/1 600 м
[Cu med, cong Ac trans]
+24.6 +23.8 95 +33 +33 очень
душно
1008.9 1004.0
штиль 0 8000 м мгла 8/1 600 м
[Cu hum Ac und Cc]
+26.8 +24.4 87 +38 +42 очень
душно
1010.2 1005.3 +24.6 7 7.3
З 3 8000 м мгла {гроза} 6/5 540 м
[Cb cap Ac trans Ci sp]
+31.0 +23.2 63 +41 +47 опасность
перегрева
1007.6 1002.7
Ю 1 8000 м в посл. час ливневой дождь 6/3 600 м
[Cu med, cong Ac trans Ci sp]
+28.0 +23.6 77 +38 +38 очень
душно
1009.9 1005.0 +32.2 0.0
Ю 1 8000 м мгла 8/4 600 м
[Cu med, cong Ac trans]
+27.1 +24.0 83 +37 +37 очень
душно
1011.2 1006.3
штиль 0 8000 м мгла {ливн. дождь} 6/3 600 м
[Cu hum Ac As]
+25.6 +23.8 90 +35 +35 очень
душно
1096.0 1004.7 0.0
СВ 1 8000 м мгла 6/1 600 м
[Cu med, cong Ac trans Ci fib]
+27.0 +23.2 80 +36 +41 очень
душно
1010.5 1005.5 +24.5 0.0 0.0
Ю 1 8000 м мгла {гроза, ливн. дождь} 8/4 600 м
[Cu med, cong Ac As]
+28.4 +24.4 79 +40 +46 очень
душно
1007.6 1002.7 0.0
Ю 1 8000 м зарница 4/4 540 м
[Cb cap]
+27.8 +24.4 82 +39 +39 очень
душно
1009.6 1004.7 +30.3
ЮВ 1 7000 м гроза без осадков {ливн. дождь} 5/4 540 м
[Cb cap Ac cuf]
+25.2 +24.4 95 +35 +35 очень
душно
1010.1 1005.2 13
штиль 0 7000 м {гроза, ливн. дождь} 9/5 600 м
[Cu Sc Cs]
+25.4 +24.6 95 +36 +36 очень
душно
1008.4 1003.5 13
штиль 0 8000 м 3/1 600 м
[Cu med, cong Ci fib]
+25.0 +24.5 97 +35 +35 очень
душно
1008.0 1003.1
З 1 8000 м мгла 8/4 600 м
[Cu med, cong Ac und Ci fib]
+27.4 +24.6 85 +39 +41 очень
душно
1009.4 1004.5 +24.5 13 12.6
З 1 8000 м слаб. ливневой дождь 9/1 540 м
[Cb cap Cs]
+29.7 +23.7 70 +41 +57 опасность
перегрева
1008.9 1004.0 0.0
З 1 8000 м гроза без осадков {ливн. дождь} 9/1 540 м
[Cb cap As op Ci fib]
+28.8 +24.8 79 +41 +50 опасность
перегрева
1006.7 1001.8 0.0
ЮЗ 1 8000 м в посл. час ливневой дождь 10/1 540 м
[Cb cap Ac trans Cs]
+28.0 +24.6 82 +40 +40 очень
душно
1007.3 1002.5 0.0
ЮВ 1 7000 м гроза, ливневой дождь 9/5 540 м
[Cu hum As trans]
+27.2 +25.2 89 +39 +39 очень
душно
1008.2 1003.3 +30.4 2
В 1 8000 м мгла {гроза} 8/4 540 м
[Cb cap Ac As]
+26.2 +25.2 94 +38 +38 очень
душно
1007.8 1002.9
СВ 1 8000 м мгла 8/3 600 м
[Cu med, cong Ac As]
+25.4 +24.3 94 +35 +35 очень
душно
1006.9 1002.0
СВ 1 8000 м мгла 4/1 600 м
[Cu med, cong Ac As Ci sp]
+26.2 +25.2 94 +38 +42 очень
душно
1007.6 1002.7 +24.6 2 2.0
ЮВ 1 7000 м мгла 9/5 540 м
[Cb cap Ac As]
+30.4 +24.3 70 +42 +47 опасность
перегрева
1006.9 1002.0
ЮЗ 2 7000 м мгла 9/4 600 м
[Sc Ac As]
+31.6 +25.0 68 +45 +49 опасность
перегрева
1004.4 999.5
штиль 0 7000 м сильн. гроза, ливневой дождь 10/6 540 м
[Cb cap As op]
+28.0 +26.2 90 +42 +43 опасность
перегрева
1004.0 999.1 15
штиль 0 7000 м мгла {гроза, дождь} 9/5 540 м
[Sc Ac As]
+27.2 +25.4 90 +40 +40 очень
душно
1005.3 1000.4 +31.6 15
штиль 0 8000 м мгла 6/3 600 м
[Sc Ac trans]
+26.6 +25.3 93 +39 +39 очень
душно
1006.4 1001.5
штиль 0 8000 м мгла 5/1 600 м
[Sc Ci fib]
+26.4 +25.1 93 +38 +38 очень
душно
1004.3 999.4
штиль 0 8000 м мгла 9/3 600 м
[Sc Ac As]
+26.2 +24.9 93 +37 +37 очень
душно
1004.0 999.1
В 1 7000 м мгла 10/3 600 м
[Sc As op]
+26.3 +24.3 89 +37 +38 очень
душно
1005.3 1000.4 +26.0 15 15.2
С 2 7000 м слаб. ливневой дождь 10/1 600 м
[Cu hum As op]
+28.1 +24.2 79 +39 +43 очень
душно
1004.4 999.5 0.0
З 1 6000 м слаб. дождь {ливн. дождь} 10/1 600 м
[Cu Sc As op]
+27.2 +25.6 91 +40 +43 очень
душно
1001.6 996.7 4
СЗ 3 6000 м дождь 10/1 600 м
[Cu hum As op]
+26.0 +24.9 94 +37 +37 очень
душно
999.8 994.9 9
Местоположение метеостанции Научный сад (Филиппины): широта 14.63 долгота 121.01 высота над уровнем моря 46 м.
В архиве по умолчанию представлена погода в Научном саду за последнюю неделю. Архивные данные за месяц целиком и за предыдущие месяцы, начиная с января 2011 года, Вы можете получить, выбрав интересующий диапазон дат из раскрывающегося списка и нажав кнопку "Найти!".
*Определитесь, кто Вы:
Внимание! Время в таблицах - всемирное. Для получения местного времени необходимо прибавить поправку, которая равна 8 ч.
Смотрите также архив погоды в соседних городах и на ближайших метеорологических станциях:
Партнеры нашего сайта:      
Пояснения к столбцам:
  • Ветер - указаны скорость ветра в м/с - средняя за 10 мин, порывы в срок и между сроками (в фигурных скобках) и направление, откуда дует ветер: С - северный,
  • СВ - северо-восточный, В - восточный, ЮВ - юго-восточный, Ю - южный, ЮЗ - юго-западный, З - западный, СЗ - северо-западный.
  • Видимость - горизонтальная дальность видимости в метрах или километрах. При видимости от 1 до 10 км при отсутствии осадков обычно наблюдается дымка, при ухудшении видимости до 1 км и менее - туман. В сухую погоду видимость может ухудшаться дымом, пылью или мглою.
  • Явления - указаны атмосферные явления, наблюдавшиеся в срок или в последний час перед сроком; фигурными скобками обозначены явления, наблюдавшиеся между сроками (за 1-3 часа до срока); квадратными скобками обозначены град или гололедные отложения с указанием их диаметра в мм.
  • Облачность - указаны через наклонную черту общая и нижняя облачность в баллах и высота нижней границы облаков в метрах; квадратными скобками обозначены формы облаков: Ci - перистые, Cs - перисто-слоистые, Cc - перисто-кучевые, Ac - высококучевые, As - высокослоистые, Sc - слоисто-кучевые, Ns - слоисто-дождевые, Cu - кучевые, Cb - кучево-дождевые. Подробнее классификацию облаков см. в Атласе облаков (PDF).
  • T - Температура воздуха - температура, измеренная на высоте 2 м над землей.
  • Td - Температура точки росы - температура, при понижении до которой содержащийся в воздухе водяной пар достигнет насыщения.
  • f - Относительная влажность воздуха - влажноcть воздуха, измеренная на высоте 2 м над землей.
  • Te - Эффективная температура - температура, которую ощущает одетый по сезону человек в тени. Характеристика душности погоды. При расчете учитывается влияние влажности воздуха и скорости ветра на теплоощущения человека.
  • Tes - Эффективная температура на солнце - температура, которую ощущает человек, с поправкой на солнечный нагрев. Характеристика знойности погоды. Зависит от высоты солнца над горизонтом, облачности и скорости ветра. Ночью, в пасмурную погоду, а также при ветре 12 м/с и более поправка равна нулю.
  • P - Атмосферное давление - приведенное к уровню моря атмосферное давление.
  • Po - Атмосферное давление - измеренное на уровне метеостанции атмосферное давление.
  • Tmin - Минимальная температура - минимум температуры воздуха на высоте 2 м над землей.
  • Tmax - Максимальная температура - максимум температуры воздуха на высоте 2 м над землей.
  • R - Количество осадков - Количество выпавших осадков за период времени, мм. При наведении курсора мыши на число - период времени, за который выпало указанное количество осадков.
  • R24 - Количество осадков - Количество выпавших осадков за 24 часа, мм.
  • S - Снежный покров - Высота снежного покрова, см. При наведении курсора мыши на число - состояние снежного покрова и степень покрытия местности в баллах.